                ,  0.945,  1.145,  1.345,  1.545,  1.745,  1.945,  2.145,  2.345,  2.545,  2.745,  2.945,  3.145,  3.345,  3.545,  3.745,  3.945,  4.145,  4.345,  4.545,  4.745,  4.945,  5.145,  5.345,  5.545,  5.745,  5.945,  6.145,  6.345,  6.545,  6.745,  6.945,  7.145,  7.345,  7.545,  7.745,  7.945,  8.145,  8.345,  8.545,  8.745,  8.945,  9.145,  9.345,  9.545,  9.745,  9.945
2000/04/26 00:00,  999.0,  999.0,  999.0,  999.0,  999.0,  999.0,  999.0,  999.0,  999.0,  999.0,  999.0,  999.0,  999.0,  999.0,  999.0,  999.0,  999.0,  999.0,  999.0,  999.0,  999.0,  999.0,  999.0,  999.0,  999.0,  999.0,  999.0,  999.0,  999.0,  999.0,  999.0,  999.0,  999.0,  999.0,  999.0,  999.0,  999.0,  999.0,  999.0,  999.0,  999.0,  999.0,  999.0,  999.0,  999.0,  999.0
2000/04/26 00:10,  999.0,   -0.4,  999.0,  999.0,   -0.4,  999.0,   -0.0,  999.0,  999.0,    0.0,  999.0,   -0.3,   -0.7,   -0.8,  999.0,  999.0,  999.0,  999.0,   -1.1,   -1.1,   -1.1,   -1.0,   -1.0,   -1.0,   -1.1,   -1.2,   -1.1,   -1.1,   -1.1,   -1.1,   -1.1,   -1.0,   -0.9,   -1.0,   -1.0,   -0.9,   -0.8,   -0.8,   -0.7,   -0.7,   -0.6,   -0.7,   -0.7,   -0.4,   -0.5,   -0.3
2000/04/26 00:20,  999.0,  999.0,  999.0,  999.0,  999.0,  999.0,   -0.3,   -0.3,   -0.0,   -0.8,   -0.8,   -0.9,   -0.9,   -0.8,   -0.9,   -0.9,   -1.0,   -1.0,   -0.9,   -0.9,   -1.0,   -1.0,   -0.9,   -0.8,   -0.9,   -0.9,   -0.9,   -1.0,   -1.0,   -1.0,   -0.9,   -1.0,   -1.0,   -0.9,   -0.9,   -0.9,   -0.8,   -0.8,   -0.8,   -0.7,   -0.7,   -0.7,   -0.6,   -0.5,   -0.7,   -0.5
2000/04/26 00:30,  999.0,   -0.2,  999.0,  999.0,  999.0,  999.0,  999.0,   -0.2,   -0.3,   -1.0,   -0.9,   -1.1,   -1.1,  999.0,   -1.2,   -1.2,   -1.1,   -1.0,   -1.1,   -1.0,   -0.9,   -0.9,   -0.8,   -0.8,   -0.8,   -0.9,   -0.9,   -0.8,   -0.8,   -0.8,   -0.9,   -0.9,   -0.9,   -0.9,   -0.9,   -0.9,   -0.9,   -0.9,   -0.9,   -0.8,   -0.7,   -0.8,   -0.8,   -0.6,  999.0,  999.0
2000/04/26 00:40,   -0.5,   -0.4,   -0.4,   -0.7,  999.0,  999.0,  999.0,   -0.5,   -0.7,   -0.9,   -0.9,   -1.0,   -1.0,   -0.9,   -1.0,   -1.2,   -1.2,   -1.1,   -1.0,   -1.0,   -0.9,   -0.8,   -0.7,   -0.6,   -0.6,   -0.6,   -0.7,   -0.8,   -0.9,   -0.9,   -1.0,   -0.8,   -0.8,   -0.8,   -0.8,   -0.9,   -0.8,   -0.9,   -0.8,   -0.7,   -0.7,   -0.5,   -0.6,  999.0,  999.0,  999.0
2000/04/26 00:50,  999.0,  999.0,  999.0,  999.0,    0.2,  999.0,  999.0,   -0.2,   -0.4,   -0.9,   -1.1,   -1.1,   -1.1,   -1.1,   -1.3,   -1.3,   -1.3,   -1.2,   -1.2,   -1.3,   -1.2,   -1.1,   -0.9,   -0.8,   -0.7,   -0.7,   -0.8,   -0.8,   -0.6,   -0.7,   -0.7,   -0.7,   -0.6,   -0.7,   -0.7,   -0.6,   -0.6,  999.0,   -0.5,  999.0,  999.0,   -0.5,  999.0,  999.0,  999.0,   -0.5
2000/04/26 01:00,   -0.4,  999.0,    0.4,    0.7,    0.7,  999.0,    0.2,   -0.5,   -0.9,   -1.1,   -1.1,   -1.3,   -1.2,   -1.0,   -1.1,   -1.1,   -1.1,   -1.0,   -1.1,   -1.0,   -0.9,   -0.7,   -0.5,   -0.4,   -0.2,   -0.1,   -0.1,    0.0,   -0.7,   -0.8,   -0.8,   -0.8,   -0.8,   -0.8,   -0.8,   -0.7,   -0.7,   -0.6,   -0.5,   -0.7,   -0.7,   -0.8,   -0.5,   -0.7,   -0.6,   -0.5
2000/04/26 01:10,  999.0,   -1.2,   -0.1,  999.0,    0.8,    1.1,    0.4,    0.4,   -0.3,   -0.8,   -0.7,   -0.9,   -0.8,   -0.9,   -0.8,   -1.0,   -0.8,   -0.8,   -0.7,   -0.7,   -0.3,   -0.4,   -0.5,   -0.3,   -0.3,  999.0,   -0.2,   -0.6,   -1.0,   -0.9,   -0.9,   -0.9,   -0.8,   -0.8,   -0.8,   -0.7,   -0.7,   -0.6,   -0.3,   -0.5,   -0.5,   -0.8,   -0.7,   -0.4,   -0.7,   -0.8
2000/04/26 01:20,  999.0,   -0.6,   -0.7,  999.0,  999.0,  999.0,  999.0,  999.0,    0.0,   -0.1,   -0.4,   -0.6,   -0.7,   -0.9,   -0.9,   -0.8,   -1.0,   -1.0,   -1.2,   -1.0,   -1.1,   -1.0,   -0.9,   -0.6,   -0.6,   -0.5,   -0.7,   -1.0,   -1.0,   -1.0,   -0.9,   -0.8,   -0.8,   -0.8,   -0.8,   -0.8,   -0.6,   -0.7,   -0.6,   -0.7,   -0.9,   -0.6,   -0.6,   -0.7,   -0.6,   -0.6
2000/04/26 01:30,    0.2,   -0.1,  999.0,   -0.4,  999.0,   -0.2,   -0.3,   -0.3,   -0.2,   -0.6,   -1.0,   -1.1,   -1.2,   -1.0,   -1.1,   -1.1,   -1.0,   -1.0,   -1.1,   -1.0,   -1.1,   -1.0,   -1.1,   -1.0,   -1.0,   -1.0,   -1.0,   -1.0,   -1.0,   -1.0,   -0.9,   -0.9,   -0.8,   -0.9,   -0.8,   -0.8,   -0.7,   -0.6,   -0.6,   -0.7,   -0.7,   -0.8,   -0.5,   -0.7,   -0.8,   -0.7
2000/04/26 01:40,  999.0,  999.0,   -0.2,    0.3,  999.0,  999.0,   -0.6,  999.0,   -0.8,   -1.1,   -1.2,   -1.1,   -1.2,   -1.0,   -1.1,   -1.1,   -1.0,   -0.9,   -0.7,   -0.6,   -0.3,   -0.4,   -0.7,   -1.0,   -1.1,   -1.1,   -1.1,   -1.0,   -1.0,   -1.0,   -1.0,   -0.9,   -0.9,   -0.8,   -0.8,   -0.8,   -0.7,   -0.7,   -0.7,   -0.7,   -0.6,   -0.5,   -0.5,   -0.6,   -0.5,   -0.3
2000/04/26 01:50,  999.0,  999.0,  999.0,  999.0,  999.0,   -0.3,   -0.2,   -0.8,   -1.0,   -1.2,   -1.1,   -1.2,   -1.1,   -1.0,   -0.9,   -1.0,   -1.0,   -0.9,   -1.0,   -1.0,   -0.9,   -0.9,   -0.9,   -1.0,   -0.9,   -0.9,   -0.9,   -0.9,   -0.9,   -0.8,   -0.8,   -0.8,   -0.8,   -0.7,   -0.7,   -0.6,   -0.7,   -0.7,   -0.8,   -0.7,   -0.7,   -0.7,   -0.6,   -0.5,   -0.5,   -0.4
2000/04/26 02:00,  999.0,   -0.3,   -0.3,  999.0,   -0.7,  999.0,  999.0,  999.0,   -1.1,   -1.1,   -1.1,   -0.8,   -1.0,   -1.1,   -1.1,   -1.1,   -1.1,   -1.1,   -1.0,   -1.0,   -0.9,   -0.9,   -0.9,   -0.8,   -0.8,   -0.9,   -1.0,   -0.9,   -0.8,   -0.8,   -0.8,   -0.7,   -0.7,   -0.7,   -0.7,   -0.6,   -0.7,   -0.6,   -0.7,   -0.7,   -0.5,   -0.6,   -0.5,   -0.5,   -0.5,  999.0
2000/04/26 02:10,  999.0,  999.0,  999.0,  999.0,  999.0,    0.6,  999.0,  999.0,  999.0,   -1.4,   -1.4,   -1.2,   -1.4,   -1.3,  999.0,   -1.2,   -1.3,   -1.4,   -1.3,   -1.2,   -1.1,   -1.2,   -1.2,   -1.1,   -1.0,   -1.0,   -1.0,   -0.8,   -0.7,   -0.6,   -0.6,   -0.6,   -0.6,   -0.6,   -0.6,   -0.5,   -0.6,   -0.7,   -0.6,   -0.7,   -0.6,   -0.6,   -0.4,  999.0,  999.0,  999.0
2000/04/26 02:20,  999.0,  999.0,  999.0,  999.0,  999.0,  999.0,  999.0,  999.0,  999.0,   -1.5,   -1.4,   -1.3,   -1.4,   -1.3,   -1.5,   -1.4,   -1.3,   -1.4,   -1.3,   -1.2,   -1.1,   -1.1,   -1.1,   -1.0,   -1.0,   -0.9,   -0.8,   -0.8,   -0.7,   -0.7,   -0.8,   -0.8,   -0.8,   -0.7,   -0.7,   -0.7,   -0.7,   -0.6,   -0.6,   -0.4,   -0.4,   -0.2,   -0.3,   -0.4,  999.0,  999.0
2000/04/26 02:30,  999.0,    0.0,  999.0,  999.0,  999.0,  999.0,  999.0,  999.0,   -1.3,   -1.3,   -1.4,   -1.3,   -1.4,   -1.4,   -1.5,   -1.5,   -1.4,   -1.3,   -1.3,   -1.2,   -1.1,   -1.1,   -1.0,   -1.0,   -1.0,   -1.0,   -0.9,   -0.9,   -0.9,   -0.9,   -0.9,   -0.8,   -0.8,   -0.8,   -0.7,   -0.7,   -0.6,   -0.6,   -0.5,   -0.4,   -0.3,   -0.2,   -0.3,   -0.2,   -0.2,  999.0
2000/04/26 02:40,   -3.3,   -3.7,   -3.2,   -3.2,   -3.3,   -2.4,   -2.2,   -1.7,  999.0,   -1.4,   -1.4,   -1.2,   -1.4,  999.0,   -1.3,   -1.2,   -1.0,   -0.9,   -1.0,   -1.0,   -1.2,   -1.0,   -1.0,   -1.0,   -0.8,   -0.7,   -0.9,   -1.0,   -1.0,   -1.0,   -0.9,   -0.9,   -0.9,   -0.8,   -0.8,   -0.7,   -0.7,   -0.6,   -0.5,   -0.5,   -0.3,  999.0,  999.0,  999.0,  999.0,  999.0
2000/04/26 02:50,   -3.1,   -3.1,   -3.0,   -3.4,   -3.5,   -2.2,   -1.4,   -1.2,  999.0,   -1.1,   -1.0,   -1.1,   -1.2,   -1.0,   -0.9,   -0.9,   -0.9,   -1.0,   -1.1,   -1.1,   -1.1,   -1.1,   -1.1,   -1.0,   -0.9,   -1.0,   -1.0,   -1.1,   -1.0,   -1.0,   -0.9,   -1.0,   -0.9,   -0.9,   -0.9,   -0.8,   -0.7,   -0.6,   -0.5,   -0.5,   -0.4,  999.0,  999.0,   -0.5,  999.0,  999.0
2000/04/26 03:00,   -2.5,   -3.0,   -3.3,   -3.4,   -3.8,   -2.4,   -1.6,   -1.4,   -1.1,   -1.1,   -1.0,   -1.0,   -1.2,   -1.3,   -1.2,   -1.2,   -1.1,   -1.1,   -1.1,   -1.1,   -1.4,   -1.3,   -1.2,   -1.1,   -1.0,   -1.0,   -1.1,   -1.2,   -1.2,   -1.1,   -1.1,   -1.0,   -0.9,   -0.9,   -0.8,   -0.7,   -0.6,   -0.6,   -0.5,   -0.5,   -0.5,   -0.5,   -0.5,   -0.4,   -0.5,   -0.2
2000/04/26 03:10,   -3.8,   -3.7,   -4.1,   -4.1,   -4.0,   -2.0,  999.0,  999.0,  999.0,  999.0,   -1.1,  999.0,   -0.9,   -0.8,   -1.0,   -1.1,   -1.1,   -1.0,  999.0,   -1.0,   -1.1,   -1.0,   -1.1,   -1.2,   -1.0,   -0.9,   -0.9,   -0.9,   -0.9,   -0.8,   -0.7,   -0.7,   -0.6,   -0.6,   -0.6,   -0.6,   -0.5,   -0.5,   -0.5,   -0.5,   -0.4,   -0.5,   -0.4,   -0.3,  999.0,  999.0
2000/04/26 03:20,   -5.3,   -5.3,   -5.4,   -5.7,   -4.8,  999.0,  999.0,  999.0,  999.0,  999.0,   -1.2,   -1.2,   -1.1,   -1.1,  999.0,  999.0,  999.0,  999.0,  999.0,  999.0,  999.0,   -1.0,   -1.2,   -1.1,   -0.9,   -0.8,   -0.8,   -0.8,   -0.8,   -0.7,   -0.7,   -0.7,   -0.7,   -0.7,   -0.6,   -0.6,   -0.5,   -0.5,   -0.5,   -0.4,   -0.4,   -0.4,   -0.3,   -0.4,   -0.2,   -0.3
2000/04/26 03:30,   -4.9,   -5.0,   -5.0,   -5.1,   -3.7,  999.0,  999.0,  999.0,   -1.0,  999.0,   -1.2,   -1.2,   -1.0,   -1.0,   -1.4,  999.0,  999.0,  999.0,  999.0,  999.0,  999.0,  999.0,   -1.0,   -0.8,   -0.8,   -0.7,   -0.9,   -0.9,   -0.9,   -0.8,   -0.8,   -0.8,   -0.7,   -0.7,   -0.6,   -0.6,   -0.6,   -0.5,   -0.5,   -0.4,   -0.3,   -0.4,   -0.3,   -0.1,   -0.3,   -0.4
2000/04/26 03:40,   -5.7,   -5.7,   -5.6,   -5.5,   -3.8,  999.0,  999.0,   -1.0,   -1.0,   -1.3,   -1.4,   -1.2,   -1.1,   -1.0,  999.0,   -1.2,   -1.1,   -1.1,   -1.0,   -0.9,   -0.9,   -0.9,   -0.8,   -0.8,   -0.8,   -0.7,   -0.8,   -0.9,   -0.9,   -0.9,   -0.8,   -0.8,   -0.7,   -0.7,   -0.7,   -0.6,   -0.6,   -0.6,   -0.6,   -0.6,   -0.5,   -0.4,   -0.3,   -0.5,   -0.4,   -0.5
2000/04/26 03:50,   -4.9,   -4.9,   -4.6,   -4.5,   -3.6,   -1.5,  999.0,  999.0,  999.0,   -1.2,   -1.4,   -1.7,  999.0,   -1.1,   -1.2,   -1.2,   -1.1,   -1.2,   -1.1,   -1.1,   -1.1,   -1.1,   -0.9,   -0.8,   -0.9,   -0.8,   -0.9,   -0.9,   -0.9,   -0.9,   -0.8,   -0.9,   -0.8,   -0.8,   -0.9,   -0.8,   -0.8,   -0.7,   -0.6,   -0.6,   -0.5,   -0.5,   -0.4,   -0.3,   -0.3,   -0.4
2000/04/26 04:00,   -4.2,   -3.9,   -4.0,   -4.4,   -3.0,  999.0,  999.0,   -1.1,   -1.3,   -1.3,   -1.2,  999.0,  999.0,   -1.2,   -1.2,  999.0,   -1.2,   -1.1,   -1.1,   -1.1,   -1.0,   -1.0,   -0.9,  999.0,   -1.0,   -0.9,   -0.9,   -0.9,   -0.9,   -0.9,   -1.0,   -1.0,   -1.0,   -0.9,   -0.9,   -0.9,   -0.8,   -0.8,   -0.7,   -0.7,   -0.5,   -0.5,   -0.4,   -0.6,   -0.5,   -0.6
2000/04/26 04:10,   -3.3,   -3.3,   -3.4,   -3.3,   -2.6,  999.0,   -1.0,   -1.1,   -1.2,  999.0,   -1.2,  999.0,   -1.1,  999.0,  999.0,  999.0,   -1.0,   -1.1,   -1.0,  999.0,   -1.0,   -1.0,  999.0,   -0.8,   -0.9,   -0.8,   -0.8,   -0.9,   -0.9,   -0.9,   -0.9,   -0.9,   -0.9,   -0.8,   -0.7,   -0.8,   -0.7,   -0.7,   -0.7,   -0.7,  999.0,  999.0,   -0.7,   -0.5,   -0.5,   -0.5
2000/04/26 04:20,   -3.0,   -3.1,   -3.0,   -2.9,   -2.2,  999.0,  999.0,   -1.2,   -1.1,   -0.8,   -1.1,   -1.3,  999.0,  999.0,  999.0,  999.0,  999.0,  999.0,  999.0,  999.0,  999.0,  999.0,   -1.0,  999.0,  999.0,  999.0,   -1.0,   -1.1,   -1.1,   -1.1,   -1.0,   -1.0,   -1.0,   -1.0,   -0.9,   -0.9,   -0.9,   -0.9,   -0.8,   -0.6,   -0.7,  999.0,   -0.5,   -0.5,   -0.4,   -0.3
2000/04/26 04:30,   -3.4,   -3.4,   -3.3,   -3.2,   -2.3,  999.0,  999.0,   -1.4,   -1.2,   -1.2,   -1.0,  999.0,  999.0,   -0.9,  999.0,  999.0,  999.0,  999.0,  999.0,  999.0,  999.0,  999.0,   -1.0,   -1.0,   -1.0,   -1.0,   -1.0,   -1.1,   -1.1,   -1.1,   -1.1,   -1.1,   -1.1,   -1.1,   -1.1,   -1.1,   -1.0,   -1.0,   -1.0,   -0.8,   -0.8,   -0.7,   -0.6,   -0.8,  999.0,   -0.4
2000/04/26 04:40,   -4.2,   -4.3,   -4.5,   -4.5,  999.0,  999.0,  999.0,   -1.1,   -1.2,   -1.2,  999.0,   -1.0,   -1.0,   -1.1,   -1.1,   -1.1,  999.0,  999.0,   -1.1,   -1.1,  999.0,   -1.2,   -1.2,   -1.2,  999.0,   -1.1,   -1.1,   -1.1,   -1.1,   -1.0,   -1.0,   -1.0,   -1.0,   -0.9,   -0.9,   -0.8,   -0.8,   -0.7,   -0.6,   -0.6,   -0.4,  999.0,   -0.4,   -0.5,  999.0,  999.0
2000/04/26 04:50,   -4.3,   -4.3,   -4.4,   -4.4,  999.0,  999.0,   -1.4,  999.0,  999.0,   -1.2,  999.0,   -1.1,   -1.1,  999.0,   -1.1,   -1.1,   -1.1,   -1.1,   -1.2,   -1.2,   -1.1,   -1.2,   -1.2,   -1.2,   -1.1,   -1.1,   -1.0,   -0.9,   -0.9,   -0.9,   -0.8,   -0.8,   -0.7,   -0.7,   -0.7,   -0.7,   -0.7,   -0.6,   -0.5,   -0.5,   -0.3,   -0.6,   -0.5,   -0.6,   -0.7,   -0.6
2000/04/26 05:00,   -3.8,   -3.9,   -3.9,   -3.9,   -2.8,   -1.4,   -1.3,   -1.1,  999.0,  999.0,   -1.0,   -1.1,   -1.2,   -1.2,   -1.2,   -1.1,   -1.1,   -1.1,   -1.1,   -1.1,  999.0,   -1.1,   -1.1,   -1.1,   -1.1,   -1.1,   -1.2,   -1.1,   -1.1,   -1.0,   -1.0,   -1.0,   -0.9,   -0.8,   -0.8,   -0.8,   -0.7,   -0.6,   -0.6,   -0.4,   -0.5,   -0.6,   -0.7,   -0.3,   -0.3,   -0.5
2000/04/26 05:10,   -4.0,   -4.0,   -3.9,   -3.7,  999.0,  999.0,  999.0,   -1.3,  999.0,   -1.0,  999.0,   -1.0,   -1.1,   -1.3,   -1.2,   -1.2,   -1.1,   -1.1,   -1.1,   -1.2,   -1.3,   -1.2,   -1.2,   -1.3,   -1.2,   -1.3,   -1.2,   -1.1,   -1.2,   -1.1,   -1.2,   -1.1,   -1.1,   -1.0,   -1.0,   -0.9,   -0.8,   -0.8,   -0.7,   -0.6,   -0.7,   -0.6,   -0.5,   -0.5,   -0.6,   -0.6
2000/04/26 05:20,   -3.6,   -3.7,   -3.6,   -3.4,   -2.0,   -1.4,  999.0,   -1.4,   -1.2,   -1.1,   -1.0,   -0.9,   -1.0,   -1.2,   -1.0,   -0.9,   -1.0,   -1.1,   -1.1,   -1.1,   -1.2,   -1.2,   -1.2,   -1.1,   -1.1,   -1.1,   -1.1,   -1.1,   -1.1,   -1.1,   -1.0,   -1.0,   -1.0,   -1.0,   -1.0,   -0.8,   -0.8,   -0.7,   -0.7,   -0.7,   -0.6,   -0.7,   -0.5,   -0.5,   -0.5,   -0.5
2000/04/26 05:30,   -3.8,   -3.8,   -3.9,   -3.7,   -2.6,  999.0,  999.0,  999.0,   -1.0,   -1.0,   -1.0,   -1.0,   -1.1,   -1.4,   -1.2,   -1.2,   -1.2,   -1.2,   -1.2,   -1.3,   -1.3,   -1.2,   -1.1,   -1.1,   -0.9,   -0.9,   -1.0,   -1.1,   -1.1,   -1.1,   -1.0,   -1.0,   -0.9,   -0.9,   -0.8,   -0.7,   -0.8,   -0.6,   -0.7,   -0.6,   -0.6,   -0.7,   -0.8,   -0.5,   -0.5,  999.0
2000/04/26 05:40,   -3.6,   -3.7,   -3.9,   -3.5,  999.0,   -1.6,   -1.5,   -1.4,   -1.2,   -1.1,   -1.1,   -1.1,   -1.3,   -1.4,   -1.5,   -1.5,   -1.4,   -1.4,   -1.4,   -1.5,   -1.5,   -1.3,   -1.2,   -1.2,   -1.1,   -1.2,   -1.2,   -1.2,   -1.2,   -1.2,   -1.1,   -1.1,   -1.1,   -1.0,   -0.9,   -0.9,   -0.8,   -0.7,   -0.6,   -0.5,   -0.5,  999.0,  999.0,  999.0,  999.0,  999.0
2000/04/26 05:50,   -4.1,   -3.9,   -4.1,   -4.0,   -2.4,   -2.0,   -1.4,   -1.3,   -1.3,   -1.3,   -1.3,   -1.2,   -1.3,   -1.4,   -1.4,   -1.4,   -1.3,   -1.3,   -1.3,   -1.3,   -1.3,   -1.2,   -1.2,  999.0,   -1.0,   -1.1,   -1.1,   -1.2,   -1.2,   -1.2,   -1.1,   -1.0,   -1.0,   -0.8,  999.0,  999.0,  999.0,  999.0,  999.0,  999.0,  999.0,  999.0,  999.0,  999.0,  999.0,  999.0
2000/04/26 06:00,   -3.5,   -3.9,   -3.6,   -3.5,   -2.2,   -1.4,   -1.4,   -1.5,   -1.5,   -1.4,   -1.5,  999.0,   -1.3,   -1.3,   -1.3,   -1.2,   -1.1,   -1.0,   -1.0,   -1.0,   -1.1,   -1.1,   -1.0,   -0.9,   -0.9,   -0.8,   -1.0,   -1.0,   -1.0,   -1.0,   -1.0,   -1.0,   -1.0,   -0.9,   -0.9,   -0.9,   -0.9,   -0.9,   -0.9,   -0.9,   -0.8,   -0.7,   -0.5,   -0.5,   -0.4,   -0.2
2000/04/26 06:10,   -3.2,   -3.3,   -3.3,   -3.1,   -1.8,   -0.9,   -0.9,   -0.7,   -0.8,   -0.8,   -0.9,   -1.0,   -1.2,   -1.3,   -1.3,   -1.2,   -1.2,   -1.1,   -1.1,   -1.1,   -1.1,  999.0,   -1.0,  999.0,   -0.8,   -0.9,   -1.0,   -1.1,   -1.0,   -0.9,   -0.9,   -0.9,   -0.8,   -0.8,   -0.8,   -0.7,   -0.8,   -0.9,   -0.9,   -0.7,  999.0,   -0.7,   -0.5,   -0.6,   -0.4,   -0.2
2000/04/26 06:20,   -2.9,   -3.1,   -3.0,   -3.2,   -1.7,   -1.2,   -1.1,   -1.0,   -1.1,   -0.9,   -1.1,   -1.1,   -1.0,   -1.1,   -1.1,   -1.1,   -1.2,   -1.1,   -1.1,   -1.1,   -1.0,   -1.0,   -1.0,   -0.8,   -0.7,   -0.8,   -0.7,   -0.8,   -0.7,   -0.8,   -0.7,   -0.8,   -0.7,   -0.6,   -0.6,   -0.6,   -0.7,   -0.7,   -0.7,   -0.7,   -0.5,   -0.6,   -0.5,   -0.4,   -0.2,  999.0
2000/04/26 06:30,   -3.5,   -3.6,   -3.6,   -3.2,   -1.8,  999.0,   -1.3,   -1.2,   -1.1,   -1.2,   -1.2,   -1.1,   -1.3,   -1.3,   -1.3,   -1.3,   -1.2,   -1.1,   -1.1,   -1.0,   -0.9,  999.0,   -0.6,   -0.7,   -0.7,   -0.7,   -0.7,   -0.7,   -0.7,   -0.7,   -0.7,   -0.7,   -0.7,   -0.7,   -0.7,   -0.7,   -0.7,   -0.6,   -0.6,   -0.5,   -0.5,   -0.6,  999.0,  999.0,  999.0,  999.0
2000/04/26 06:40,   -4.3,   -4.3,   -4.1,   -3.6,   -1.8,   -1.4,   -1.4,   -1.1,   -1.2,   -1.3,  999.0,   -1.3,   -1.3,   -1.3,   -1.3,   -1.2,   -1.2,   -1.1,   -1.0,   -1.0,   -1.0,   -1.0,   -0.9,   -0.9,   -0.9,   -0.8,   -0.9,   -0.9,   -0.9,   -0.9,   -0.9,   -0.9,   -0.9,   -0.9,   -0.8,   -0.8,   -0.6,   -0.5,   -0.4,   -0.5,   -0.6,  999.0,   -0.2,  999.0,  999.0,  999.0
2000/04/26 06:50,   -4.0,   -3.9,   -3.9,   -3.7,  999.0,  999.0,   -1.2,   -1.2,   -1.1,   -1.0,  999.0,   -1.2,   -1.2,   -1.2,   -1.1,   -1.0,   -1.1,   -1.0,   -1.0,   -1.0,   -0.9,   -0.9,   -0.9,   -0.8,   -0.8,   -0.9,   -0.8,   -0.9,   -0.8,   -0.8,   -0.8,   -0.8,   -0.7,   -0.6,  999.0,  999.0,  999.0,  999.0,  999.0,  999.0,  999.0,  999.0,  999.0,  999.0,  999.0,  999.0
2000/04/26 07:00,   -4.0,   -3.9,   -3.9,   -3.7,  999.0,  999.0,  999.0,  999.0,   -1.0,   -1.0,   -1.2,   -1.2,   -1.1,   -1.1,   -1.1,   -1.0,   -1.0,   -1.1,   -1.0,   -0.9,   -0.8,   -0.8,   -0.8,   -0.7,   -0.7,   -0.6,   -0.7,   -0.7,   -0.7,   -0.7,   -0.7,   -0.7,   -0.7,   -0.7,   -0.6,   -0.7,   -0.7,   -0.5,   -0.6,   -0.5,   -0.4,   -0.4,   -0.3,   -0.2,   -0.1,   -0.1
2000/04/26 07:10,   -4.5,   -4.5,   -4.6,   -4.4,  999.0,  999.0,  999.0,  999.0,   -1.1,   -1.1,   -1.1,   -1.1,   -1.2,   -1.2,   -1.2,   -1.3,   -1.2,   -1.0,   -1.0,   -1.0,   -0.9,   -0.9,   -0.9,   -0.8,   -0.8,   -0.8,   -0.9,   -1.0,   -1.0,   -0.9,   -0.9,   -0.9,   -0.8,   -0.8,   -0.7,   -0.7,   -0.6,   -0.6,   -0.5,   -0.5,   -0.4,   -0.3,   -0.3,   -0.2,   -0.0,   -0.1
2000/04/26 07:20,   -5.3,   -5.3,   -5.3,   -5.0,  999.0,  999.0,  999.0,   -0.9,   -0.9,   -0.9,   -1.0,   -0.9,   -0.9,   -0.7,   -0.7,   -0.8,   -0.7,   -0.9,   -1.1,   -1.1,   -1.1,   -1.0,   -1.0,   -1.0,   -1.0,   -1.0,   -1.0,   -1.0,   -1.0,   -1.0,   -0.9,   -0.9,   -0.9,   -0.8,   -0.8,   -0.7,   -0.7,   -0.6,   -0.5,   -0.5,   -0.4,   -0.3,  999.0,  999.0,  999.0,  999.0
2000/04/26 07:30,   -4.2,   -4.4,   -4.1,   -3.8,   -3.1,   -2.6,  999.0,  999.0,  999.0,   -0.6,   -0.6,   -0.7,   -0.7,   -0.8,   -1.0,   -1.0,  999.0,  999.0,   -1.1,   -1.2,   -1.1,   -1.1,   -1.1,   -1.0,   -1.0,   -1.0,   -1.0,   -1.0,   -0.9,   -0.9,   -0.9,   -0.8,   -0.8,   -0.8,   -0.7,   -0.6,   -0.6,   -0.6,   -0.5,   -0.5,  999.0,  999.0,  999.0,  999.0,  999.0,  999.0
2000/04/26 07:40,   -3.1,   -3.0,   -3.0,   -2.9,   -2.8,   -2.7,   -1.4,  999.0,   -1.0,   -1.1,   -1.1,   -1.3,   -1.4,   -1.3,   -1.2,   -1.3,   -1.3,   -1.2,   -1.1,   -1.1,   -1.1,   -1.2,   -1.1,   -1.1,   -1.1,   -1.0,   -1.0,   -1.0,   -0.9,   -0.8,   -0.8,   -0.8,   -0.7,   -0.7,   -0.8,   -0.7,   -0.6,   -0.4,   -0.4,   -0.3,  999.0,  999.0,  999.0,  999.0,  999.0,  999.0
2000/04/26 07:50,   -4.8,   -4.9,   -4.6,   -4.6,   -4.9,   -3.6,  999.0,  999.0,   -1.1,   -1.1,  999.0,   -1.3,   -1.3,   -1.2,   -1.2,   -1.1,   -1.2,   -1.2,   -1.2,   -1.2,   -1.2,   -1.1,   -1.1,   -1.1,   -1.0,   -0.9,   -0.9,   -0.9,   -0.8,   -0.8,   -0.8,   -0.8,   -0.8,   -0.9,   -0.8,   -0.8,   -0.7,   -0.6,   -0.5,   -0.5,   -0.7,   -0.5,   -0.4,   -0.3,   -0.6,   -0.6
2000/04/26 08:00,   -4.6,   -4.8,   -4.7,   -4.6,   -4.4,   -3.5,   -1.8,   -1.3,   -1.0,   -1.0,  999.0,   -1.1,   -1.2,   -1.2,   -1.3,   -1.1,   -1.1,   -1.2,   -1.1,   -1.1,   -1.1,   -1.1,   -1.0,   -1.0,   -1.0,   -1.0,   -1.0,   -0.9,   -0.9,   -0.9,   -0.9,   -0.8,   -0.7,   -0.6,   -0.6,   -0.5,   -0.5,   -0.5,   -0.5,   -0.4,   -0.4,   -0.4,   -0.3,   -0.3,  999.0,  999.0
2000/04/26 08:10,   -4.0,  999.0,   -4.0,   -3.8,   -3.7,   -3.3,   -1.9,   -1.1,   -1.0,   -1.0,   -0.9,   -1.0,   -1.1,   -1.1,   -1.0,   -1.0,   -1.0,   -1.1,   -1.1,   -1.0,   -1.0,   -1.0,   -1.0,   -1.0,   -1.0,   -1.0,   -1.0,   -1.0,   -1.0,   -1.0,   -0.9,   -0.9,   -0.8,   -0.8,   -0.8,   -0.7,   -0.7,   -0.6,   -0.6,   -0.7,   -0.6,   -0.5,   -0.4,   -0.3,  999.0,  999.0
2000/04/26 08:20,   -2.9,   -2.9,   -3.0,   -3.0,   -2.8,   -2.5,   -1.9,   -1.3,   -1.2,   -1.2,   -1.1,   -1.1,   -1.1,   -1.1,   -1.0,   -1.0,   -1.0,   -0.9,   -0.9,   -1.0,   -0.8,   -0.9,   -0.9,   -0.9,   -1.0,   -1.0,   -1.0,   -1.0,   -0.9,   -0.8,   -0.8,   -0.7,   -0.7,   -0.7,   -0.7,   -0.6,   -0.6,   -0.5,   -0.5,   -0.5,   -0.5,   -0.3,   -0.3,   -0.1,  999.0,  999.0
2000/04/26 08:30,   -2.4,   -2.4,   -2.4,   -2.6,   -2.7,   -3.0,   -1.9,   -1.1,   -1.1,   -1.1,   -1.2,   -1.0,   -1.0,   -1.0,   -0.9,   -0.8,   -0.8,   -0.8,   -0.9,   -0.8,   -0.8,   -0.9,   -0.9,   -1.0,   -0.9,   -0.9,   -0.9,   -0.8,   -0.8,   -0.8,   -0.7,   -0.7,   -0.7,   -0.6,   -0.6,   -0.6,   -0.6,   -0.5,   -0.5,   -0.5,   -0.6,   -0.4,   -0.7,  999.0,  999.0,  999.0
2000/04/26 08:40,   -3.0,  999.0,   -2.9,   -2.9,   -2.8,   -2.5,   -1.8,   -1.0,   -1.0,   -1.0,   -0.9,   -0.9,   -0.9,   -0.9,   -0.9,   -0.9,   -1.0,   -0.9,   -0.9,   -0.9,   -0.9,   -0.8,   -0.8,   -0.9,   -0.8,   -0.8,   -0.7,   -0.7,   -0.7,   -0.6,   -0.6,   -0.5,   -0.5,   -0.5,   -0.5,   -0.5,   -0.5,   -0.5,   -0.5,   -0.5,  999.0,  999.0,  999.0,  999.0,  999.0,  999.0
2000/04/26 08:50,   -2.5,   -2.5,   -2.6,   -2.2,   -1.9,   -1.8,   -1.4,   -0.7,   -0.7,   -0.8,   -0.8,   -0.9,   -1.0,   -0.9,   -0.8,   -0.8,   -0.9,   -0.9,   -0.9,   -0.9,   -0.9,   -0.8,   -0.8,   -0.8,   -0.8,   -0.7,   -0.7,   -0.7,   -0.7,   -0.6,   -0.6,   -0.5,   -0.5,   -0.5,   -0.5,   -0.4,   -0.5,   -0.5,   -0.4,   -0.3,   -0.3,   -0.3,   -0.3,  999.0,  999.0,  999.0
2000/04/26 09:00,  999.0,  999.0,   -1.9,   -1.8,   -1.5,   -1.4,   -1.2,   -0.7,   -0.8,   -0.9,   -0.9,   -1.0,   -1.1,   -1.1,   -1.0,   -1.0,   -1.1,   -1.0,   -1.0,   -1.0,   -0.9,   -0.9,   -1.0,   -1.0,   -0.9,   -0.9,   -0.9,   -0.9,   -0.9,   -0.8,   -0.8,   -0.7,   -0.7,   -0.6,   -0.5,   -0.6,   -0.5,   -0.5,   -0.4,   -0.4,  999.0,   -0.3,  999.0,  999.0,  999.0,  999.0
2000/04/26 09:10,   -3.0,   -3.3,   -3.1,   -2.7,   -2.7,   -2.5,   -2.1,   -1.0,   -1.0,  999.0,   -1.2,   -1.4,   -1.4,   -1.3,   -1.3,   -1.2,   -1.1,   -1.1,   -1.1,   -1.0,   -1.0,   -1.0,   -0.9,   -1.0,   -1.0,   -0.9,   -0.9,   -0.9,   -0.8,   -0.8,   -0.7,   -0.7,   -0.7,   -0.7,   -0.6,   -0.6,   -0.6,   -0.5,   -0.5,   -0.5,   -0.5,   -0.4,   -0.4,   -0.4,   -0.3,   -0.4
2000/04/26 09:20,   -4.5,   -4.4,   -4.5,   -4.5,   -4.6,   -4.5,  999.0,  999.0,  999.0,  999.0,   -1.4,   -1.4,   -1.5,   -1.4,   -1.3,   -1.2,   -1.2,   -1.2,   -1.1,   -1.1,   -1.1,   -1.0,   -0.9,   -0.9,   -0.9,   -0.9,   -0.9,   -0.8,   -0.8,   -0.7,   -0.7,   -0.8,   -0.8,   -0.7,   -0.7,   -0.7,   -0.7,   -0.6,   -0.6,   -0.6,   -0.6,   -0.5,   -0.5,   -0.4,   -0.3,   -0.4
2000/04/26 09:30,   -4.8,   -4.8,   -4.7,   -4.8,   -4.8,   -4.7,  999.0,  999.0,  999.0,   -1.3,   -1.3,   -1.4,   -1.4,   -1.4,   -1.4,   -1.3,   -1.3,   -1.2,   -1.2,   -1.1,   -1.1,   -1.0,   -1.0,   -1.0,   -1.0,   -1.0,   -1.0,   -0.9,   -1.0,   -1.0,   -1.0,   -0.9,   -0.9,   -0.9,   -0.8,   -0.8,   -0.8,   -0.7,   -0.6,   -0.6,   -0.6,   -0.6,   -0.5,   -0.5,   -0.4,   -0.5
2000/04/26 09:40,   -5.1,   -5.2,   -5.3,   -5.3,   -5.2,   -5.0,  999.0,  999.0,  999.0,   -1.5,   -1.4,   -1.3,   -1.3,   -1.3,   -1.3,   -1.2,   -1.2,   -1.2,   -1.1,   -1.1,   -1.0,  999.0,   -1.0,   -1.0,   -1.0,   -0.9,   -0.8,   -0.9,   -0.9,   -0.9,   -0.8,   -0.8,   -0.8,   -0.8,   -0.7,   -0.7,   -0.7,   -0.7,   -0.5,   -0.6,   -0.5,   -0.5,   -0.4,   -0.4,  999.0,  999.0
2000/04/26 09:50,   -4.9,   -4.9,   -4.9,   -4.8,   -4.8,   -4.7,  999.0,  999.0,  999.0,  999.0,   -1.2,   -1.2,   -1.3,   -1.3,   -1.3,   -1.3,   -1.2,   -1.1,   -1.2,   -1.1,   -1.2,   -1.1,   -1.0,   -1.0,   -1.0,   -0.9,   -0.9,   -0.9,   -0.9,   -0.9,   -0.8,   -0.8,   -0.9,   -0.8,   -0.8,   -0.7,   -0.7,   -0.6,   -0.7,   -0.6,   -0.5,   -0.7,   -0.6,   -0.5,   -0.6,   -0.4
2000/04/26 10:00,   -4.4,   -4.5,   -4.6,   -4.7,   -4.5,   -4.4,  999.0,  999.0,  999.0,  999.0,   -1.3,   -1.4,   -1.4,   -1.4,   -1.3,   -1.3,   -1.3,   -1.2,   -1.2,   -1.2,   -1.1,   -1.1,   -1.1,   -1.1,   -1.0,   -1.0,   -0.9,   -0.9,   -0.9,   -0.9,   -0.9,   -0.9,   -0.9,   -0.9,   -0.8,   -0.7,   -0.7,   -0.7,   -0.7,   -0.6,   -0.7,   -0.7,   -0.6,   -0.5,   -0.4,   -0.4
2000/04/26 10:10,   -4.9,   -5.1,   -5.2,   -5.3,   -5.1,   -5.0,  999.0,  999.0,  999.0,   -1.3,   -1.2,   -1.3,   -1.3,   -1.3,   -1.3,   -1.4,   -1.3,   -1.2,   -1.2,   -1.1,   -1.1,   -1.0,   -1.0,   -1.0,   -1.0,   -0.9,   -0.9,   -0.8,   -0.8,   -0.8,   -0.7,   -0.7,   -0.7,   -0.7,   -0.7,   -0.6,   -0.6,   -0.6,   -0.5,   -0.5,   -0.5,   -0.6,   -0.5,   -0.3,  999.0,  999.0
2000/04/26 10:20,   -4.4,   -4.6,   -4.9,   -5.0,   -5.0,   -4.9,   -3.4,  999.0,  999.0,   -1.3,   -1.3,   -1.4,   -1.4,   -1.4,   -1.3,   -1.3,   -1.2,   -1.1,   -1.0,  999.0,   -0.9,   -1.0,   -1.0,   -0.9,   -0.9,   -0.9,   -0.8,   -0.8,   -0.8,   -0.7,   -0.7,   -0.7,   -0.7,   -0.7,   -0.7,   -0.7,   -0.7,   -0.6,   -0.6,   -0.6,   -0.6,   -0.6,   -0.6,  999.0,  999.0,  999.0
2000/04/26 10:30,   -6.3,   -6.7,   -7.1,   -7.2,   -7.3,   -6.4,  999.0,  999.0,  999.0,  999.0,   -1.4,   -1.4,   -1.4,   -1.4,   -1.3,   -1.2,   -1.1,   -1.0,  999.0,   -1.1,   -1.0,   -1.0,   -1.0,   -0.9,   -0.8,   -0.8,   -0.8,   -0.8,   -0.7,   -0.8,   -0.7,   -0.8,   -0.7,   -0.6,   -0.6,   -0.6,   -0.6,   -0.5,   -0.5,   -0.6,   -0.5,   -0.4,   -0.5,   -0.5,   -0.6,  999.0
2000/04/26 10:40,   -6.2,   -6.6,   -6.8,   -7.0,   -7.1,   -6.5,  999.0,  999.0,  999.0,  999.0,   -1.4,   -1.4,   -1.5,   -1.4,   -1.3,   -1.2,   -1.1,   -1.1,  999.0,  999.0,   -1.1,   -1.1,   -1.0,   -1.0,   -0.9,   -0.9,   -0.9,   -0.9,   -0.9,   -0.9,   -0.9,   -0.9,   -0.8,   -0.8,   -0.7,   -0.7,   -0.8,   -0.8,   -0.8,   -0.8,   -0.8,   -0.7,   -0.6,   -0.4,   -0.5,   -0.5
2000/04/26 10:50,   -5.9,   -6.3,   -6.6,   -6.8,   -6.9,   -6.3,  999.0,  999.0,  999.0,   -1.5,   -1.5,   -1.5,   -1.4,   -1.3,   -1.2,   -1.2,   -1.2,   -1.1,  999.0,   -1.0,   -1.0,   -1.0,   -1.0,   -1.0,   -0.9,   -0.9,   -0.9,   -0.9,   -0.9,   -1.0,   -1.0,   -1.0,   -0.9,   -1.0,   -0.9,   -0.8,   -0.8,   -0.8,   -0.8,   -0.7,   -0.8,   -0.7,   -0.7,   -0.5,   -0.6,   -0.4
2000/04/26 11:00,   -6.2,   -6.5,   -6.7,   -7.1,   -7.2,   -6.8,  999.0,  999.0,  999.0,  999.0,   -1.4,   -1.4,   -1.3,   -1.3,   -1.2,   -1.1,   -1.1,  999.0,   -1.1,   -1.1,   -1.1,   -1.1,   -1.1,   -1.0,   -0.9,   -0.8,   -0.8,   -0.9,   -0.9,   -0.9,   -0.9,   -0.8,   -0.8,   -0.8,   -0.8,   -0.8,   -0.7,   -0.8,   -0.7,   -0.6,   -0.6,   -0.5,   -0.5,   -0.4,   -0.4,   -0.2
2000/04/26 11:10,   -6.4,   -6.7,   -7.2,   -7.6,   -7.8,   -7.6,  999.0,  999.0,  999.0,  999.0,   -1.5,   -1.5,   -1.4,   -1.3,   -1.2,   -1.2,   -1.2,  999.0,  999.0,  999.0,   -1.1,   -1.0,   -1.0,   -0.9,   -0.8,   -0.8,   -0.8,   -0.8,   -0.8,   -0.8,   -0.8,   -0.8,   -0.7,   -0.8,   -0.7,   -0.6,   -0.5,   -0.5,   -0.6,   -0.5,   -0.4,   -0.5,   -0.5,   -0.4,   -0.4,  999.0
2000/04/26 11:20,   -6.0,   -6.1,   -6.3,   -6.7,   -6.8,   -6.8,  999.0,  999.0,  999.0,   -1.6,   -1.6,   -1.5,   -1.5,   -1.4,   -1.3,   -1.2,   -1.2,   -1.1,   -1.1,   -1.1,   -1.1,   -1.1,   -1.0,   -1.1,   -1.0,   -1.0,   -0.9,   -1.0,   -1.0,   -1.0,   -0.9,   -0.9,   -0.8,   -0.8,   -0.8,   -0.8,   -0.7,   -0.7,   -0.6,   -0.6,   -0.6,   -0.3,   -0.6,  999.0,   -0.4,   -0.5
2000/04/26 11:30,   -5.8,   -6.0,   -6.3,   -6.6,   -7.0,   -6.8,  999.0,  999.0,  999.0,   -1.6,   -1.5,   -1.4,   -1.5,   -1.4,   -1.4,   -1.4,   -1.2,  999.0,   -1.1,   -1.0,   -1.0,   -0.9,   -0.9,   -0.9,   -0.8,   -0.7,   -0.7,   -0.7,   -0.7,   -0.8,   -0.8,   -0.7,   -0.8,   -0.7,   -0.7,   -0.7,   -0.7,   -0.6,   -0.5,   -0.5,   -0.4,   -0.3,  999.0,   -0.1,   -0.0,  999.0
2000/04/26 11:40,   -6.1,   -6.4,   -6.8,   -7.2,   -7.2,   -7.0,   -5.0,  999.0,  999.0,  999.0,   -1.6,   -1.5,   -1.4,   -1.4,   -1.4,   -1.3,   -1.3,   -1.1,   -1.2,  999.0,   -1.1,   -1.1,   -1.1,   -1.0,   -1.0,   -0.9,   -0.9,   -0.9,   -0.9,   -1.0,   -1.0,   -0.8,   -0.8,   -0.8,   -0.7,   -0.7,   -0.6,   -0.6,   -0.6,   -0.5,   -0.4,   -0.3,   -0.2,   -0.2,   -0.3,   -0.1
2000/04/26 11:50,   -7.3,   -7.5,   -7.9,   -8.3,   -8.5,   -8.0,   -5.2,  999.0,  999.0,  999.0,   -1.6,   -1.6,   -1.5,   -1.4,   -1.4,   -1.3,   -1.2,   -1.3,  999.0,   -1.3,   -1.3,   -1.2,   -1.2,   -1.2,   -1.1,   -1.0,   -1.0,   -1.0,   -1.0,   -1.1,   -1.0,   -1.0,   -1.0,   -0.9,   -0.9,   -0.9,   -0.8,   -0.7,   -0.7,   -0.7,   -0.6,   -0.5,   -0.5,   -0.3,   -0.2,   -0.3
2000/04/26 12:00,   -8.3,   -8.6,   -9.0,   -9.3,   -9.4,   -8.6,  999.0,  999.0,  999.0,  999.0,   -1.6,   -1.6,   -1.6,   -1.5,   -1.3,   -1.4,   -1.4,   -1.3,   -1.4,   -1.2,   -1.3,   -1.2,   -1.1,   -1.1,   -1.0,   -0.9,   -0.9,   -1.1,   -1.1,   -1.1,   -1.1,   -1.0,   -1.0,   -1.0,   -0.9,   -1.0,   -0.8,   -0.7,   -0.6,   -0.6,   -0.6,   -0.6,   -0.5,   -0.5,   -0.4,   -0.5
2000/04/26 12:10,   -7.9,   -8.0,   -8.2,   -8.4,   -7.9,   -7.8,   -6.0,  999.0,  999.0,  999.0,   -1.4,   -1.4,   -1.4,   -1.4,   -1.4,   -1.5,  999.0,  999.0,   -1.5,   -1.4,   -1.3,   -1.3,   -1.3,   -1.1,   -0.9,   -0.8,   -0.7,   -0.7,   -0.8,   -0.9,   -0.9,   -1.0,   -0.9,   -0.9,   -0.8,   -0.7,   -0.7,   -0.6,   -0.5,   -0.5,   -0.4,   -0.3,   -0.4,   -0.3,   -0.2,   -0.1
2000/04/26 12:20,   -6.8,   -6.9,   -7.3,   -7.5,   -7.6,   -7.0,   -5.7,  999.0,  999.0,   -1.8,   -1.7,   -1.6,   -1.8,   -1.6,  999.0,  999.0,   -1.7,   -1.6,   -1.6,   -1.5,   -1.4,   -1.3,   -1.2,   -1.0,   -1.0,   -1.0,   -1.0,   -1.0,   -1.1,   -1.0,   -1.0,   -1.0,   -0.9,   -0.8,   -0.7,   -0.6,   -0.5,   -0.5,   -0.5,   -0.5,   -0.5,   -0.4,   -0.5,   -0.6,   -0.4,   -0.4
2000/04/26 12:30,   -5.6,   -5.7,   -5.8,   -6.3,   -6.9,   -6.7,   -5.0,   -2.5,   -1.8,   -1.9,   -2.0,  999.0,  999.0,   -1.7,  999.0,   -1.7,   -1.8,   -1.6,   -1.7,   -1.7,   -1.4,   -1.3,   -1.2,   -1.0,   -1.1,   -1.0,   -1.0,   -1.1,   -1.1,   -1.1,   -1.1,   -1.0,   -0.9,   -0.8,   -0.8,   -0.8,   -0.8,   -0.8,   -0.8,   -0.8,   -0.7,   -0.6,   -0.6,   -0.5,   -0.2,   -0.3
2000/04/26 12:40,   -7.2,   -7.3,   -7.8,   -7.9,   -8.0,   -7.5,  999.0,  999.0,  999.0,  999.0,  999.0,   -1.9,  999.0,  999.0,  999.0,  999.0,   -1.9,   -2.0,   -1.8,   -1.8,   -1.6,   -1.4,   -1.3,   -1.1,   -1.0,   -1.0,   -1.1,   -1.1,   -1.0,   -1.0,   -1.0,   -1.0,   -0.9,   -0.9,   -0.8,   -0.8,   -0.8,   -0.8,   -0.7,   -0.6,   -0.6,   -0.5,   -0.5,   -0.4,   -0.4,   -0.3
2000/04/26 12:50,   -6.9,   -7.0,   -7.1,   -6.9,   -7.1,   -6.9,   -4.4,   -2.3,   -1.8,  999.0,  999.0,   -1.9,  999.0,  999.0,   -2.1,  999.0,   -2.0,   -2.0,   -1.9,   -1.7,   -1.4,   -1.3,   -1.2,   -1.1,   -1.0,   -1.0,   -1.1,   -1.0,   -1.0,   -1.0,   -0.8,   -0.8,   -0.8,   -0.7,   -0.6,   -0.6,   -0.7,   -0.6,   -0.6,   -0.3,  999.0,  999.0,  999.0,  999.0,  999.0,  999.0
2000/04/26 13:00,   -6.6,   -6.8,   -6.9,   -6.9,   -7.2,   -7.2,   -4.3,   -2.4,   -2.0,  999.0,  999.0,   -1.8,   -1.7,   -1.6,   -1.7,   -1.4,   -1.3,   -1.3,   -1.3,   -1.2,   -1.2,   -1.2,   -1.1,   -1.1,   -1.2,   -1.2,   -1.1,   -1.0,   -1.0,   -1.0,   -1.0,   -0.9,   -0.9,   -0.8,   -0.8,   -0.9,   -0.8,   -0.7,   -0.6,   -0.6,   -0.6,   -0.5,  999.0,   -0.4,   -0.4,   -0.2
2000/04/26 13:10,   -7.2,   -7.3,   -7.4,   -7.7,   -8.0,   -7.5,   -5.2,  999.0,  999.0,   -1.9,  999.0,   -1.8,   -1.7,  999.0,   -1.3,   -1.3,   -1.2,   -1.2,   -1.2,   -1.2,   -1.1,   -1.1,   -1.1,   -1.1,   -1.1,   -1.0,   -0.9,   -0.9,   -0.9,   -0.9,   -0.8,   -0.8,   -0.9,   -0.9,   -0.7,   -0.7,   -0.5,  999.0,  999.0,  999.0,  999.0,  999.0,  999.0,  999.0,  999.0,  999.0
2000/04/26 13:20,   -7.4,   -7.4,   -7.6,   -7.6,   -7.8,   -7.6,   -5.5,  999.0,  999.0,  999.0,  999.0,  999.0,   -1.5,  999.0,  999.0,   -1.2,   -1.2,   -1.1,   -1.1,   -1.2,   -1.2,   -1.1,   -1.1,   -1.1,   -1.0,   -1.0,   -0.9,   -1.0,   -1.0,   -1.0,   -1.0,   -1.0,   -0.9,   -0.9,   -0.8,   -0.8,   -0.6,   -0.7,   -0.7,   -0.4,   -0.8,   -0.9,   -0.8,   -0.6,   -0.5,   -0.5
2000/04/26 13:30,   -6.7,   -7.1,   -7.4,   -7.7,   -7.7,   -7.6,   -5.9,  999.0,  999.0,  999.0,  999.0,  999.0,  999.0,  999.0,  999.0,   -1.3,   -1.2,   -1.0,   -1.1,   -1.0,   -1.0,   -1.1,   -1.1,   -1.1,   -1.0,   -0.9,   -0.9,   -0.9,   -0.8,   -0.8,   -0.8,   -0.6,   -0.6,  999.0,   -0.9,  999.0,  999.0,   -0.7,   -0.5,   -0.5,   -0.3,  999.0,  999.0,  999.0,  999.0,  999.0
2000/04/26 13:40,   -7.0,   -7.1,   -7.3,   -7.5,   -7.6,   -7.6,   -5.8,  999.0,  999.0,  999.0,  999.0,  999.0,  999.0,   -1.6,   -1.4,   -1.3,   -1.1,   -1.0,   -1.1,   -1.1,   -1.1,   -1.2,   -1.1,   -1.0,   -0.8,   -0.8,   -0.7,   -0.7,   -0.7,   -0.6,   -0.7,   -0.7,   -0.7,   -0.8,   -0.8,   -0.7,   -0.5,   -0.5,   -0.5,   -0.5,  999.0,   -0.9,  999.0,   -0.6,  999.0,  999.0
2000/04/26 13:50,   -5.0,   -5.1,   -4.5,   -5.2,   -4.4,   -4.3,   -4.6,   -3.2,   -2.1,   -1.8,  999.0,   -1.8,   -1.6,   -1.6,   -1.5,   -1.4,   -1.3,   -1.3,   -1.4,   -1.3,   -1.3,   -1.4,   -1.3,   -1.2,   -1.2,   -1.2,   -1.1,   -1.2,   -1.2,   -1.2,   -1.1,   -0.9,   -0.9,   -0.8,   -0.8,   -0.9,   -0.9,   -0.7,   -0.7,   -0.5,   -0.5,   -0.5,   -0.4,   -0.3,   -0.1,   -0.2
2000/04/26 14:00,   -4.8,   -5.0,   -5.4,   -5.8,   -5.6,   -5.9,   -5.7,   -3.4,  999.0,  999.0,  999.0,  999.0,  999.0,   -1.6,   -1.5,   -1.4,   -1.3,   -1.2,   -1.0,   -0.8,   -0.8,   -1.6,   -1.1,   -1.2,   -1.1,   -1.2,   -1.2,   -1.2,   -1.2,   -1.1,   -1.1,   -1.0,   -1.0,   -0.9,   -0.7,   -0.6,   -0.6,   -0.4,   -0.4,   -0.3,   -0.3,   -0.2,  999.0,  999.0,  999.0,  999.0
2000/04/26 14:10,   -5.4,   -5.8,   -5.6,   -5.7,   -5.5,   -5.4,   -5.2,   -4.3,   -2.3,   -1.6,  999.0,   -1.6,   -1.6,   -1.7,   -1.6,   -1.5,   -1.3,   -1.2,   -1.1,   -1.0,   -1.2,   -1.2,   -0.8,   -0.9,   -0.8,   -0.9,   -0.9,   -1.0,   -0.9,   -1.1,   -0.8,   -0.7,   -0.7,   -0.6,   -0.5,   -0.3,   -0.3,  999.0,  999.0,  999.0,  999.0,  999.0,  999.0,  999.0,  999.0,  999.0
2000/04/26 14:20,   -4.1,   -4.1,   -4.2,   -4.1,   -3.9,   -4.1,   -4.2,   -3.6,   -2.3,   -1.8,   -1.8,  999.0,   -1.5,   -1.7,   -2.0,   -1.4,   -1.2,   -1.3,   -1.2,   -1.0,   -0.8,   -0.6,   -0.9,   -0.8,   -0.5,   -0.2,   -0.1,   -0.2,  999.0,  999.0,    0.1,  999.0,  999.0,  999.0,  999.0,  999.0,  999.0,  999.0,  999.0,  999.0,  999.0,  999.0,  999.0,  999.0,  999.0,  999.0
2000/04/26 14:30,   -4.3,   -4.6,   -5.3,   -5.2,   -5.7,   -5.4,   -5.2,   -4.4,   -2.4,   -1.6,   -1.9,  999.0,   -1.9,   -2.0,   -1.7,   -1.5,   -1.5,   -1.5,   -1.1,   -0.8,   -1.1,   -1.0,   -1.1,   -1.0,   -0.7,   -0.6,   -0.2,   -0.1,  999.0,  999.0,  999.0,  999.0,  999.0,  999.0,  999.0,  999.0,  999.0,  999.0,  999.0,  999.0,  999.0,  999.0,  999.0,  999.0,  999.0,  999.0
2000/04/26 14:40,   -4.1,   -4.2,   -4.3,   -4.6,   -4.4,   -4.2,   -4.1,   -4.0,   -2.5,   -1.9,   -1.7,   -1.6,   -1.3,  999.0,   -1.1,   -1.2,   -1.2,   -0.8,   -0.7,   -0.6,   -0.5,   -0.3,   -0.4,   -0.5,   -0.5,   -0.2,   -0.1,    0.0,  999.0,  999.0,  999.0,  999.0,  999.0,  999.0,  999.0,  999.0,  999.0,  999.0,  999.0,  999.0,  999.0,  999.0,  999.0,  999.0,  999.0,  999.0
2000/04/26 14:50,   -4.1,   -4.0,   -3.8,   -3.8,   -3.9,   -3.8,   -3.8,   -4.1,   -2.6,   -2.1,   -1.8,  999.0,  999.0,   -1.7,   -2.0,   -1.6,   -1.5,   -1.3,   -1.0,   -0.8,   -0.6,   -0.3,   -0.1,   -0.3,   -0.4,   -0.2,    0.1,    0.1,  999.0,  999.0,  999.0,  999.0,  999.0,  999.0,  999.0,  999.0,  999.0,  999.0,  999.0,  999.0,  999.0,  999.0,  999.0,  999.0,  999.0,  999.0
2000/04/26 15:00,   -3.3,   -3.6,   -3.8,   -4.0,   -4.0,   -3.8,   -3.5,   -3.5,   -2.4,   -1.6,   -1.5,   -1.5,  999.0,   -1.8,   -2.0,   -1.9,   -1.6,   -1.3,   -0.8,   -0.8,   -0.8,   -0.5,   -0.5,   -0.3,   -0.3,   -0.1,  999.0,    0.1,  999.0,  999.0,  999.0,  999.0,  999.0,  999.0,  999.0,  999.0,  999.0,  999.0,  999.0,  999.0,  999.0,  999.0,  999.0,  999.0,  999.0,  999.0
2000/04/26 15:10,   -4.0,   -3.7,   -3.7,   -3.9,   -3.4,  999.0,   -4.0,   -4.0,  999.0,  999.0,  999.0,  999.0,   -1.8,   -1.8,   -1.7,   -1.8,   -1.8,   -1.5,   -1.4,   -1.1,   -1.0,   -0.6,   -0.6,   -0.4,   -0.5,   -0.4,  999.0,   -0.0,  999.0,  999.0,  999.0,  999.0,  999.0,  999.0,  999.0,  999.0,  999.0,  999.0,  999.0,  999.0,  999.0,  999.0,  999.0,  999.0,  999.0,  999.0
2000/04/26 15:20,   -3.3,   -3.2,   -3.4,   -3.6,   -3.4,   -3.5,   -3.8,   -4.2,   -3.1,   -2.5,   -2.1,   -2.1,   -1.6,   -1.3,   -1.7,   -1.9,   -1.5,   -1.1,   -0.8,   -0.7,   -0.3,   -0.2,    0.0,   -0.2,   -0.3,   -0.0,   -0.1,  999.0,  999.0,  999.0,  999.0,  999.0,  999.0,  999.0,  999.0,  999.0,  999.0,  999.0,  999.0,  999.0,  999.0,  999.0,  999.0,  999.0,  999.0,  999.0
2000/04/26 15:30,   -3.5,   -3.5,   -3.4,   -3.3,   -3.2,   -2.7,   -2.3,   -1.8,   -1.7,   -1.6,   -1.4,   -1.3,   -1.2,   -1.3,   -1.4,   -1.2,   -1.3,   -1.0,   -0.9,   -0.6,   -0.2,   -0.1,   -0.4,   -0.4,   -0.3,   -0.1,  999.0,  999.0,  999.0,  999.0,  999.0,  999.0,  999.0,  999.0,  999.0,  999.0,  999.0,  999.0,  999.0,  999.0,  999.0,  999.0,  999.0,  999.0,  999.0,  999.0
2000/04/26 15:40,   -2.3,   -2.5,   -2.5,   -2.4,   -3.2,   -3.2,   -3.5,   -3.9,   -3.9,   -2.9,   -2.4,   -1.6,  999.0,   -1.3,   -1.3,   -1.2,   -0.7,   -0.4,   -0.1,   -0.2,   -0.3,   -0.1,   -0.2,   -0.4,   -0.2,  999.0,  999.0,  999.0,  999.0,  999.0,  999.0,  999.0,  999.0,  999.0,  999.0,  999.0,  999.0,  999.0,  999.0,  999.0,  999.0,  999.0,  999.0,  999.0,  999.0,  999.0
2000/04/26 15:50,   -3.3,   -3.3,   -4.1,   -3.9,   -3.9,   -4.0,   -3.9,   -3.8,   -4.0,   -2.2,   -1.6,   -1.6,   -1.3,   -1.4,   -1.2,   -0.9,   -0.7,   -0.4,   -0.2,   -0.1,   -0.1,    0.0,   -0.0,   -0.2,   -0.5,   -0.5,  999.0,   -0.0,  999.0,  999.0,  999.0,  999.0,  999.0,  999.0,  999.0,  999.0,  999.0,  999.0,  999.0,  999.0,  999.0,  999.0,  999.0,  999.0,  999.0,  999.0
2000/04/26 16:00,   -2.9,   -2.5,   -2.2,   -2.0,   -1.8,   -1.6,   -1.9,   -1.9,  999.0,   -1.6,   -1.5,   -1.6,   -1.1,   -1.5,   -1.4,   -1.1,   -1.1,   -1.0,   -1.0,   -0.5,   -0.6,   -0.6,   -0.7,   -0.5,   -0.3,   -0.1,  999.0,  999.0,  999.0,  999.0,  999.0,  999.0,  999.0,  999.0,  999.0,  999.0,  999.0,  999.0,  999.0,  999.0,  999.0,  999.0,  999.0,  999.0,  999.0,  999.0
2000/04/26 16:10,   -3.7,   -3.5,   -3.9,   -3.8,   -4.7,   -3.7,   -4.1,   -4.0,   -3.6,   -2.7,   -1.5,   -1.2,   -1.3,   -1.5,   -1.2,   -0.8,   -0.5,   -0.5,   -0.2,   -0.0,    0.2,    0.0,    0.0,   -0.0,    0.0,  999.0,  999.0,  999.0,  999.0,  999.0,  999.0,  999.0,  999.0,  999.0,  999.0,  999.0,  999.0,  999.0,  999.0,  999.0,  999.0,  999.0,  999.0,  999.0,  999.0,  999.0
2000/04/26 16:20,   -4.2,   -4.1,   -3.8,   -3.4,   -3.3,   -3.9,   -3.6,   -3.4,   -2.6,   -3.1,   -1.8,  999.0,   -1.3,   -1.4,   -1.0,   -0.7,   -0.3,   -0.1,   -0.0,    0.1,    0.1,    0.1,    0.1,   -0.1,   -0.1,  999.0,  999.0,  999.0,  999.0,  999.0,  999.0,  999.0,  999.0,  999.0,  999.0,  999.0,  999.0,  999.0,  999.0,  999.0,  999.0,  999.0,  999.0,  999.0,  999.0,  999.0
2000/04/26 16:30,   -4.3,   -4.0,   -3.6,   -4.6,   -4.4,   -4.3,   -4.9,   -4.2,   -4.2,   -3.4,  999.0,   -1.7,   -1.3,   -1.2,   -0.9,   -0.6,   -0.6,   -0.2,   -0.3,   -0.3,   -0.4,   -0.2,   -0.5,   -0.2,   -0.3,   -0.4,  999.0,  999.0,  999.0,  999.0,  999.0,  999.0,  999.0,  999.0,  999.0,  999.0,  999.0,  999.0,  999.0,  999.0,  999.0,  999.0,  999.0,  999.0,  999.0,  999.0
2000/04/26 16:40,   -4.2,   -4.1,   -4.4,   -4.7,   -4.7,   -5.2,   -4.3,  999.0,   -3.1,   -2.6,   -2.7,   -2.1,   -1.8,   -1.6,   -1.4,   -1.1,   -1.0,   -0.8,   -0.8,   -0.8,   -0.9,   -0.5,   -0.6,   -0.5,   -0.2,   -0.1,  999.0,  999.0,  999.0,  999.0,  999.0,  999.0,  999.0,  999.0,  999.0,  999.0,  999.0,  999.0,  999.0,  999.0,  999.0,  999.0,  999.0,  999.0,  999.0,  999.0
2000/04/26 16:50,   -6.2,   -6.2,   -5.8,   -7.2,   -7.3,   -8.0,   -7.8,   -7.5,   -6.3,   -4.6,   -2.3,   -2.1,   -2.0,   -2.0,   -1.9,   -1.7,   -1.3,   -1.1,   -1.0,   -0.9,   -0.8,   -0.7,   -0.4,   -0.5,   -0.2,    0.2,  999.0,  999.0,  999.0,  999.0,  999.0,  999.0,  999.0,  999.0,  999.0,  999.0,  999.0,  999.0,  999.0,  999.0,  999.0,  999.0,  999.0,  999.0,  999.0,  999.0
2000/04/26 17:00,   -6.1,   -6.2,   -6.3,   -6.3,   -6.1,   -6.0,   -6.5,   -6.1,   -5.6,   -4.9,   -3.3,   -1.8,   -1.8,   -1.6,   -1.3,   -1.1,   -0.8,   -0.5,   -0.4,   -0.6,   -0.6,   -0.4,   -0.3,   -0.1,   -0.1,  999.0,  999.0,   -0.1,  999.0,  999.0,  999.0,  999.0,  999.0,  999.0,  999.0,  999.0,  999.0,  999.0,  999.0,  999.0,  999.0,  999.0,  999.0,  999.0,  999.0,  999.0
2000/04/26 17:10,   -5.4,   -5.5,   -5.8,   -5.6,   -5.7,   -5.9,   -5.2,   -5.1,   -5.2,   -4.7,   -4.2,   -2.5,   -2.1,   -1.9,   -2.0,   -1.7,   -1.3,   -1.0,   -0.7,   -0.5,   -0.4,   -0.2,   -0.0,   -0.0,    0.1,  999.0,  999.0,   -0.0,  999.0,  999.0,  999.0,  999.0,  999.0,  999.0,  999.0,  999.0,  999.0,  999.0,  999.0,  999.0,  999.0,  999.0,  999.0,  999.0,  999.0,  999.0
2000/04/26 17:20,   -4.1,   -3.9,   -3.9,   -4.0,   -3.9,   -3.6,   -3.6,   -3.5,   -3.2,   -2.7,   -2.4,   -2.1,   -2.0,   -1.4,   -1.4,   -1.2,   -1.0,   -0.8,   -0.7,   -1.0,   -0.8,   -0.5,   -0.5,   -0.2,   -0.1,  999.0,  999.0,   -0.0,  999.0,  999.0,  999.0,  999.0,  999.0,  999.0,  999.0,  999.0,  999.0,  999.0,  999.0,  999.0,  999.0,  999.0,  999.0,  999.0,  999.0,  999.0
2000/04/26 17:30,   -3.8,   -3.6,   -3.5,   -3.3,   -3.4,   -3.3,   -3.2,   -2.8,   -2.4,   -2.1,   -1.9,   -2.4,   -1.9,   -1.7,   -1.6,   -1.3,   -1.1,   -0.9,   -0.9,   -1.1,   -0.9,   -0.6,   -0.5,   -0.1,   -0.0,  999.0,  999.0,  999.0,  999.0,  999.0,  999.0,  999.0,  999.0,  999.0,  999.0,  999.0,  999.0,  999.0,  999.0,  999.0,  999.0,  999.0,  999.0,  999.0,  999.0,  999.0
2000/04/26 17:40,   -4.5,   -4.5,   -4.5,   -5.5,   -5.0,   -5.3,   -5.1,   -4.8,   -4.1,   -3.4,   -2.7,   -1.9,   -1.4,   -1.0,   -0.8,   -0.6,   -0.6,   -0.6,   -0.6,   -0.4,   -0.3,   -0.3,   -0.2,    0.1,  999.0,  999.0,  999.0,   -0.0,  999.0,  999.0,  999.0,  999.0,  999.0,  999.0,  999.0,  999.0,  999.0,  999.0,  999.0,  999.0,  999.0,  999.0,  999.0,  999.0,  999.0,  999.0
2000/04/26 17:50,   -4.3,   -3.9,   -4.0,   -3.5,   -3.6,   -3.5,   -3.3,   -3.2,   -2.6,   -2.0,   -1.7,   -1.1,   -0.9,   -0.6,   -0.4,   -0.4,   -0.5,   -0.5,   -0.5,   -0.2,   -0.2,   -0.1,   -0.2,   -0.2,  999.0,  999.0,  999.0,  999.0,  999.0,  999.0,  999.0,  999.0,  999.0,  999.0,  999.0,  999.0,  999.0,  999.0,  999.0,  999.0,  999.0,  999.0,  999.0,  999.0,  999.0,  999.0
2000/04/26 18:00,   -3.0,   -2.9,   -2.9,   -2.8,   -2.6,   -2.8,   -2.8,   -2.7,   -1.9,   -0.9,   -0.7,   -0.4,   -0.1,    0.0,   -0.1,   -0.8,   -0.7,   -0.2,    0.3,    0.1,    0.1,   -0.3,   -0.0,    0.1,  999.0,  999.0,  999.0,  999.0,  999.0,  999.0,  999.0,  999.0,  999.0,  999.0,  999.0,  999.0,  999.0,  999.0,  999.0,  999.0,  999.0,  999.0,  999.0,  999.0,  999.0,  999.0
2000/04/26 18:10,   -2.7,   -2.5,   -2.3,   -2.1,   -2.0,   -1.9,   -1.7,   -1.5,   -1.0,   -0.6,   -0.4,   -0.7,   -1.1,   -0.3,   -0.7,   -1.1,   -0.8,   -1.0,   -0.6,   -0.1,   -0.3,   -0.3,   -0.1,   -0.1,  999.0,  999.0,  999.0,  999.0,  999.0,  999.0,  999.0,  999.0,  999.0,  999.0,  999.0,  999.0,  999.0,  999.0,  999.0,  999.0,  999.0,  999.0,  999.0,  999.0,  999.0,  999.0
2000/04/26 18:20,   -3.0,   -3.1,   -3.2,   -2.7,   -2.5,   -2.3,   -2.0,   -1.9,   -1.3,   -0.7,   -0.9,   -0.6,   -0.1,   -0.3,   -0.2,   -0.9,   -1.2,   -0.2,   -0.0,    0.1,   -0.2,   -0.3,    0.1,    0.1,  999.0,    0.0,  999.0,   -0.0,  999.0,  999.0,  999.0,  999.0,  999.0,  999.0,  999.0,  999.0,  999.0,  999.0,  999.0,  999.0,  999.0,  999.0,  999.0,  999.0,  999.0,  999.0
2000/04/26 18:30,   -2.3,   -2.1,   -2.2,   -2.3,   -2.3,   -2.4,   -2.3,   -1.8,   -1.2,   -0.4,    0.0,   -0.1,   -0.1,    0.1,   -0.1,   -0.5,   -0.9,   -0.6,   -0.1,   -0.1,   -0.2,    0.0,    0.1,   -0.1,  999.0,  999.0,  999.0,  999.0,  999.0,  999.0,  999.0,  999.0,  999.0,  999.0,  999.0,  999.0,  999.0,  999.0,  999.0,  999.0,  999.0,  999.0,  999.0,  999.0,  999.0,  999.0
2000/04/26 18:40,   -2.5,   -2.5,   -2.2,   -2.2,   -1.9,   -2.0,   -2.0,   -1.4,   -1.0,   -0.4,   -0.1,    0.1,    0.0,   -0.1,    0.0,    0.1,  999.0,    0.1,   -0.2,    0.1,    0.0,    0.3,  999.0,  999.0,  999.0,  999.0,  999.0,  999.0,  999.0,  999.0,  999.0,  999.0,  999.0,  999.0,  999.0,  999.0,  999.0,  999.0,  999.0,  999.0,  999.0,  999.0,  999.0,  999.0,  999.0,  999.0
2000/04/26 18:50,   -2.0,   -1.7,   -1.7,   -1.8,   -1.6,   -1.8,   -1.8,   -1.1,   -0.5,   -0.3,    0.1,    0.2,    0.3,    0.1,    0.2,    0.3,  999.0,   -0.4,   -0.0,  999.0,  999.0,    0.0,  999.0,  999.0,  999.0,  999.0,  999.0,  999.0,  999.0,  999.0,  999.0,  999.0,  999.0,  999.0,  999.0,  999.0,  999.0,  999.0,  999.0,  999.0,  999.0,  999.0,  999.0,  999.0,  999.0,  999.0
2000/04/26 19:00,   -1.6,   -1.5,   -1.3,   -1.7,   -1.6,   -1.7,   -1.7,   -1.3,   -0.5,   -0.2,   -0.2,   -0.1,   -0.0,    0.1,    0.1,    0.4,  999.0,  999.0,    0.3,  999.0,  999.0,    0.0,  999.0,  999.0,  999.0,  999.0,  999.0,  999.0,  999.0,  999.0,  999.0,  999.0,  999.0,  999.0,  999.0,  999.0,  999.0,  999.0,  999.0,  999.0,  999.0,  999.0,  999.0,  999.0,  999.0,  999.0
2000/04/26 19:10,   -3.4,   -3.1,   -2.8,   -2.8,   -2.6,   -2.2,   -1.9,   -1.4,   -1.0,   -0.6,   -0.2,   -0.1,   -0.2,   -0.0,   -0.0,  999.0,  999.0,  999.0,    0.2,  999.0,   -0.0,  999.0,  999.0,   -0.2,  999.0,  999.0,  999.0,  999.0,  999.0,  999.0,  999.0,  999.0,  999.0,  999.0,  999.0,  999.0,  999.0,  999.0,  999.0,  999.0,  999.0,  999.0,  999.0,  999.0,  999.0,  999.0
2000/04/26 19:20,   -3.0,   -2.6,   -2.4,   -2.6,   -2.4,   -2.2,   -1.7,   -1.1,   -0.6,   -0.3,   -0.2,   -0.3,   -0.0,    0.0,    0.0,  999.0,  999.0,    0.1,   -0.1,  999.0,  999.0,   -0.1,   -0.1,   -0.2,  999.0,  999.0,  999.0,  999.0,  999.0,  999.0,  999.0,  999.0,  999.0,  999.0,  999.0,  999.0,  999.0,  999.0,  999.0,  999.0,  999.0,  999.0,  999.0,  999.0,  999.0,  999.0
2000/04/26 19:30,   -2.1,   -2.1,   -2.2,   -2.1,   -1.8,   -1.7,   -1.3,   -0.8,   -0.1,   -0.2,   -0.1,    0.1,  999.0,    0.0,    0.1,   -0.1,   -0.0,  999.0,  999.0,  999.0,  999.0,  999.0,  999.0,   -0.1,  999.0,  999.0,  999.0,  999.0,  999.0,  999.0,  999.0,  999.0,  999.0,  999.0,  999.0,  999.0,  999.0,  999.0,  999.0,  999.0,  999.0,  999.0,  999.0,  999.0,  999.0,  999.0
2000/04/26 19:40,   -2.7,   -2.3,   -2.4,   -2.1,   -1.9,   -1.8,   -1.3,   -0.6,   -0.4,   -0.2,   -0.0,    0.0,  999.0,    0.1,    0.0,  999.0,   -0.2,   -0.1,   -0.2,  999.0,  999.0,   -0.0,   -0.2,  999.0,  999.0,  999.0,  999.0,  999.0,  999.0,  999.0,  999.0,  999.0,  999.0,  999.0,  999.0,  999.0,  999.0,  999.0,  999.0,  999.0,  999.0,  999.0,  999.0,  999.0,  999.0,  999.0
2000/04/26 19:50,   -2.7,   -2.4,   -2.3,   -2.2,   -2.0,   -1.9,   -1.1,   -0.2,   -0.0,    0.0,   -0.0,   -0.0,  999.0,    0.1,    0.2,    0.1,    0.2,   -0.1,    0.1,  999.0,  999.0,  999.0,  999.0,  999.0,  999.0,  999.0,  999.0,  999.0,  999.0,  999.0,  999.0,  999.0,  999.0,  999.0,  999.0,  999.0,  999.0,  999.0,  999.0,  999.0,  999.0,  999.0,  999.0,  999.0,  999.0,  999.0
2000/04/26 20:00,   -2.3,   -2.3,   -2.1,   -2.2,   -2.3,   -2.2,   -0.8,    0.7,    0.7,    0.5,    0.2,    0.0,    0.0,    0.2,    0.3,    0.3,    0.4,    0.2,  999.0,  999.0,  999.0,   -0.0,  999.0,  999.0,  999.0,  999.0,  999.0,  999.0,  999.0,  999.0,  999.0,  999.0,  999.0,  999.0,  999.0,  999.0,  999.0,  999.0,  999.0,  999.0,  999.0,  999.0,  999.0,  999.0,  999.0,  999.0
2000/04/26 20:10,   -1.4,   -1.6,   -1.7,   -1.7,   -1.8,   -1.5,   -0.9,    0.2,    0.2,    0.3,  999.0,  999.0,    0.0,    0.1,  999.0,  999.0,  999.0,  999.0,  999.0,  999.0,  999.0,   -0.1,  999.0,  999.0,  999.0,  999.0,  999.0,  999.0,  999.0,  999.0,  999.0,  999.0,  999.0,  999.0,  999.0,  999.0,  999.0,  999.0,  999.0,  999.0,  999.0,  999.0,  999.0,  999.0,  999.0,  999.0
2000/04/26 20:20,   -2.3,   -2.6,   -2.4,   -2.6,   -2.4,   -2.0,   -1.0,    0.0,    0.1,    0.1,    0.5,    0.3,    0.0,  999.0,  999.0,   -0.0,    0.1,   -0.1,  999.0,  999.0,  999.0,   -0.0,    0.0,  999.0,  999.0,  999.0,  999.0,  999.0,  999.0,  999.0,  999.0,  999.0,  999.0,  999.0,  999.0,  999.0,  999.0,  999.0,  999.0,  999.0,  999.0,  999.0,  999.0,  999.0,  999.0,  999.0
2000/04/26 20:30,   -2.8,   -2.7,   -2.8,   -2.5,   -2.1,   -1.8,   -0.9,   -0.3,   -0.1,   -0.1,  999.0,   -0.0,  999.0,  999.0,    0.1,  999.0,   -0.1,   -0.1,  999.0,  999.0,   -0.1,   -0.0,   -0.0,  999.0,  999.0,  999.0,  999.0,  999.0,  999.0,  999.0,  999.0,  999.0,  999.0,  999.0,  999.0,  999.0,  999.0,  999.0,  999.0,  999.0,  999.0,  999.0,  999.0,  999.0,  999.0,  999.0
2000/04/26 20:40,   -2.8,   -2.4,   -2.0,   -2.1,   -1.9,   -1.6,   -0.4,   -0.1,    0.1,    0.2,  999.0,  999.0,  999.0,  999.0,  999.0,    0.0,    0.1,  999.0,    0.0,  999.0,  999.0,    0.0,    0.1,  999.0,  999.0,  999.0,  999.0,    0.0,  999.0,  999.0,  999.0,  999.0,  999.0,  999.0,  999.0,  999.0,  999.0,  999.0,  999.0,  999.0,  999.0,  999.0,  999.0,  999.0,  999.0,  999.0
2000/04/26 20:50,   -1.6,   -1.5,   -1.5,   -1.8,   -1.7,   -1.5,   -1.0,   -0.4,   -0.0,   -0.0,   -0.1,  999.0,  999.0,    0.1,  999.0,   -0.1,   -0.0,  999.0,  999.0,  999.0,  999.0,  999.0,  999.0,  999.0,  999.0,  999.0,  999.0,   -0.0,  999.0,  999.0,  999.0,  999.0,  999.0,  999.0,  999.0,  999.0,  999.0,  999.0,  999.0,  999.0,  999.0,  999.0,  999.0,  999.0,  999.0,  999.0
2000/04/26 21:00,   -2.4,   -2.2,   -1.9,   -1.6,   -1.7,   -1.6,   -0.9,   -0.5,  999.0,   -0.3,  999.0,   -0.1,   -0.1,  999.0,  999.0,    0.1,  999.0,   -0.2,   -0.2,   -0.0,  999.0,  999.0,  999.0,  999.0,  999.0,  999.0,  999.0,  999.0,  999.0,  999.0,  999.0,  999.0,  999.0,  999.0,  999.0,  999.0,  999.0,  999.0,  999.0,  999.0,  999.0,  999.0,  999.0,  999.0,  999.0,  999.0
2000/04/26 21:10,   -3.4,   -3.4,   -3.1,   -2.8,   -2.3,   -1.8,   -1.2,    0.1,   -0.0,  999.0,  999.0,   -0.2,   -0.0,   -0.1,  999.0,  999.0,  999.0,   -0.1,  999.0,   -0.2,  999.0,  999.0,  999.0,  999.0,  999.0,  999.0,  999.0,  999.0,  999.0,  999.0,  999.0,  999.0,  999.0,  999.0,  999.0,  999.0,  999.0,  999.0,  999.0,  999.0,  999.0,  999.0,  999.0,  999.0,  999.0,  999.0
2000/04/26 21:20,   -2.1,   -1.9,   -1.6,   -1.6,   -1.1,   -0.7,   -0.5,   -0.0,   -0.1,    0.1,  999.0,   -0.1,  999.0,  999.0,  999.0,  999.0,   -0.1,  999.0,    0.0,  999.0,  999.0,    0.0,  999.0,  999.0,  999.0,  999.0,  999.0,  999.0,  999.0,  999.0,  999.0,  999.0,  999.0,  999.0,  999.0,  999.0,  999.0,  999.0,  999.0,  999.0,  999.0,  999.0,  999.0,  999.0,  999.0,  999.0
2000/04/26 21:30,   -2.7,   -2.8,   -2.5,   -2.1,   -1.7,   -0.9,   -0.9,   -0.5,   -0.2,   -0.1,    0.1,   -0.0,  999.0,   -0.0,    0.2,  999.0,    0.2,    0.1,    0.3,  999.0,    0.2,   -0.0,  999.0,   -0.1,  999.0,  999.0,  999.0,  999.0,  999.0,  999.0,   -0.6,   -0.7,   -0.7,   -0.6,   -0.7,   -0.7,  999.0,  999.0,  999.0,  999.0,  999.0,  999.0,  999.0,  999.0,  999.0,  999.0
2000/04/26 21:40,   -2.4,   -2.4,   -2.0,   -2.0,   -2.0,   -1.0,   -0.5,   -0.1,   -0.0,    0.1,    0.0,  999.0,   -0.3,   -0.2,  999.0,   -0.3,   -0.4,  999.0,  999.0,  999.0,  999.0,   -0.0,  999.0,  999.0,  999.0,  999.0,  999.0,  999.0,  999.0,  999.0,   -0.9,   -0.9,   -1.1,   -1.0,   -0.9,   -1.1,  999.0,  999.0,  999.0,  999.0,  999.0,  999.0,  999.0,  999.0,  999.0,  999.0
2000/04/26 21:50,   -1.3,   -1.9,   -2.0,   -2.1,   -1.9,   -1.8,   -1.2,   -0.9,   -0.4,   -0.1,  999.0,  999.0,  999.0,  999.0,  999.0,   -0.4,   -0.3,   -0.0,  999.0,   -0.3,  999.0,  999.0,  999.0,  999.0,  999.0,  999.0,  999.0,    0.0,  999.0,  999.0,   -1.0,   -1.1,   -1.1,   -1.1,   -1.2,  999.0,  999.0,  999.0,  999.0,  999.0,  999.0,  999.0,  999.0,  999.0,  999.0,  999.0
2000/04/26 22:00,   -2.2,   -2.3,   -2.1,   -2.1,   -1.7,   -0.9,   -0.6,   -0.2,    0.1,    0.4,  999.0,  999.0,  999.0,    0.0,  999.0,  999.0,    0.0,   -0.0,    0.0,   -0.1,  999.0,  999.0,  999.0,  999.0,  999.0,  999.0,  999.0,  999.0,  999.0,   -0.8,   -0.9,   -1.0,   -1.0,   -1.0,   -0.9,   -0.8,   -0.8,  999.0,  999.0,  999.0,  999.0,  999.0,  999.0,  999.0,  999.0,  999.0
2000/04/26 22:10,   -2.5,   -2.5,   -2.3,   -2.2,   -1.6,   -0.6,   -0.4,   -0.0,    0.4,    0.1,    0.4,  999.0,  999.0,  999.0,  999.0,  999.0,   -0.1,   -0.2,  999.0,  999.0,  999.0,   -0.0,  999.0,  999.0,  999.0,  999.0,  999.0,  999.0,  999.0,   -0.5,   -0.8,   -0.9,   -0.8,   -0.8,   -0.8,   -0.7,   -0.8,   -0.8,  999.0,  999.0,  999.0,  999.0,  999.0,  999.0,  999.0,  999.0
2000/04/26 22:20,   -2.5,   -2.3,   -1.7,   -2.0,   -1.4,   -0.5,   -0.0,    0.1,    0.6,    0.3,  999.0,  999.0,  999.0,    0.1,  999.0,  999.0,  999.0,  999.0,  999.0,  999.0,  999.0,    0.0,  999.0,  999.0,  999.0,  999.0,  999.0,  999.0,   -0.6,   -0.6,   -0.5,   -0.6,   -0.6,   -0.7,   -0.6,   -0.6,   -0.6,   -0.4,  999.0,  999.0,  999.0,  999.0,  999.0,  999.0,  999.0,  999.0
2000/04/26 22:30,   -2.1,   -1.8,   -1.9,   -1.9,   -1.4,   -0.7,  999.0,  999.0,  999.0,    0.2,    0.4,    0.2,    0.3,    0.4,  999.0,    0.2,  999.0,  999.0,  999.0,    0.2,    0.2,  999.0,  999.0,  999.0,  999.0,  999.0,  999.0,  999.0,   -0.4,   -0.6,   -0.6,   -0.6,   -0.6,   -0.6,   -0.6,   -0.8,   -0.7,   -0.5,   -0.5,   -0.4,   -0.6,   -0.9,   -0.7,   -0.5,   -0.7,   -0.9
2000/04/26 22:40,   -2.2,   -2.4,   -2.1,   -1.9,   -1.3,   -0.4,   -0.1,    0.0,    0.1,    0.1,   -0.2,  999.0,    0.3,    0.3,    0.4,    0.3,  999.0,  999.0,  999.0,  999.0,  999.0,   -0.0,  999.0,  999.0,  999.0,  999.0,  999.0,   -0.3,   -0.5,   -0.6,   -0.6,   -0.6,   -0.6,   -0.6,   -0.7,   -0.5,   -0.6,   -0.5,   -0.5,   -0.6,   -0.7,   -0.8,   -0.7,   -0.6,   -0.6,   -0.6
2000/04/26 22:50,   -1.9,   -2.2,   -1.8,   -1.5,   -0.8,   -0.3,    0.4,    0.4,    0.5,    0.4,    0.4,    0.2,    0.2,    0.1,    0.2,    0.3,    0.2,  999.0,  999.0,    0.2,    0.1,  999.0,  999.0,  999.0,  999.0,  999.0,  999.0,   -0.8,   -0.9,   -0.9,   -0.9,   -0.9,   -0.9,   -0.9,   -0.9,   -0.8,   -0.7,   -0.7,   -0.6,   -0.6,   -0.8,   -0.6,   -0.6,   -0.6,   -0.3,   -0.4
2000/04/26 23:00,   -1.0,   -2.2,   -1.9,   -1.6,   -1.1,   -0.7,   -0.4,    0.3,    0.4,    0.4,  999.0,  999.0,  999.0,  999.0,  999.0,    0.2,  999.0,  999.0,  999.0,    0.1,    0.1,  999.0,  999.0,  999.0,  999.0,  999.0,  999.0,   -0.9,   -0.9,   -0.9,   -0.9,   -0.9,   -0.9,   -1.0,   -0.9,   -0.9,   -0.8,   -0.8,   -0.8,   -0.8,   -0.8,   -0.7,   -0.6,   -0.3,   -0.3,  999.0
2000/04/26 23:10,   -2.4,   -2.2,   -1.9,   -1.6,   -0.8,   -0.6,   -0.5,   -0.1,    0.1,  999.0,    0.1,    0.2,  999.0,  999.0,  999.0,    0.3,    0.3,  999.0,  999.0,    0.1,    0.1,  999.0,  999.0,    0.1,  999.0,   -0.7,   -0.8,   -0.7,   -0.7,   -0.7,   -0.8,   -0.7,   -0.7,   -0.7,   -0.6,   -0.7,   -0.6,   -0.5,  999.0,  999.0,  999.0,  999.0,  999.0,   -0.5,   -0.3,  999.0
2000/04/26 23:20,   -2.3,   -2.0,   -1.8,   -1.7,   -1.5,   -1.1,   -0.7,   -0.3,   -0.1,   -0.2,   -0.1,  999.0,    0.1,  999.0,  999.0,  999.0,    0.2,  999.0,  999.0,  999.0,    0.1,    0.0,  999.0,  999.0,   -0.7,   -0.8,   -0.8,   -0.8,   -0.8,   -0.8,   -0.8,   -0.8,   -0.7,   -0.6,  999.0,  999.0,  999.0,  999.0,  999.0,  999.0,  999.0,  999.0,  999.0,   -0.5,   -0.2,  999.0
2000/04/26 23:30,   -2.0,   -2.1,   -1.8,   -1.4,   -0.5,   -0.7,   -0.5,  999.0,   -0.2,  999.0,  999.0,  999.0,  999.0,  999.0,  999.0,  999.0,  999.0,  999.0,  999.0,  999.0,   -0.0,    0.0,    0.1,   -0.7,   -1.0,   -1.0,   -0.9,   -0.9,   -0.9,   -0.9,   -0.9,   -0.9,   -0.8,   -0.8,   -0.8,  999.0,  999.0,  999.0,  999.0,  999.0,  999.0,  999.0,  999.0,  999.0,  999.0,  999.0
2000/04/26 23:40,   -1.7,   -1.8,   -1.5,   -1.0,   -0.6,   -0.3,   -0.0,    0.1,    0.2,    0.2,    0.2,  999.0,  999.0,  999.0,  999.0,  999.0,  999.0,  999.0,  999.0,  999.0,   -0.0,    0.0,    0.0,   -0.7,   -0.9,   -0.9,   -0.9,   -0.9,   -0.9,   -0.9,   -0.9,   -0.9,   -0.9,   -0.8,   -0.8,   -0.8,   -0.8,  999.0,  999.0,  999.0,  999.0,  999.0,  999.0,  999.0,  999.0,  999.0
2000/04/26 23:50,   -1.4,   -1.4,   -1.3,   -0.9,   -0.5,   -0.6,   -0.4,    0.0,    0.1,    0.0,    0.1,  999.0,    0.3,  999.0,  999.0,  999.0,  999.0,  999.0,  999.0,  999.0,    0.0,   -0.0,   -0.1,  999.0,   -0.7,   -0.8,   -0.9,   -0.9,   -1.0,   -1.0,   -1.0,   -0.9,   -0.9,   -0.9,   -0.9,   -0.8,   -0.8,   -0.8,   -0.7,   -0.8,  999.0,  999.0,  999.0,  999.0,  999.0,  999.0
